Location: Unspecified
(49.9820°N, 20.4363°E)
Time: 09:41:28
(UTC+02:00)

ISS - Pass Details

Date: 17 July 2018
Orbit: 402 x 408 km, 51.6° (Epoch: 23 July)

Event Time Altitude Azimuth Distance (km) Brightness Sun altitude
Rises 03:14:48 0° 284° (WNW) 2,333 -0.2 -11.4°
Reaches altitude 10° 03:16:53 10° 285° (WNW) 1,472 -1.2 -11.2°
Maximum altitude 03:20:12 78° 12° (NNE) 423 -3.7 -10.9°
Drops below altitude 10° 03:23:30 10° 100° (E) 1,472 -0.6 -10.6°
Sets 03:25:35 0° 102° (ESE) 2,332 0.4 -10.4°
